Time,TemperatureF,DewpointF,PressureIn,WindDirection,WindDirectionDegrees,WindSpeedMPH,WindSpeedGustMPH,Humidity,HourlyPrecipIn,Conditions,Clouds,dailyrainin,SoftwareType,DateUTC
2013-04-06 00:12:00,58.1,48.7,30.00,East,90,2.7,-999.0,71,-99.99,,,0.00,Acu-Link.com,2013-04-06 05:12:00,
2013-04-06 00:27:00,58.1,48.7,29.99,ESE,112,2.2,-999.0,71,-99.99,,,0.00,Acu-Link.com,2013-04-06 05:27:00,
2013-04-06 00:43:00,58.1,48.7,29.98,South,180,3.1,-999.0,71,-99.99,,,0.00,Acu-Link.com,2013-04-06 05:43:00,
2013-04-06 00:58:00,58.1,48.7,29.98,SE,135,3.1,-999.0,71,-99.99,,,0.00,Acu-Link.com,2013-04-06 05:58:00,
2013-04-06 01:13:00,57.9,48.6,29.98,ESE,112,3.8,-999.0,71,-99.99,,,0.00,Acu-Link.com,2013-04-06 06:13:00,
2013-04-06 01:43:00,58.1,48.7,29.96,SE,135,4.3,-999.0,71,-99.99,,,0.00,Acu-Link.com,2013-04-06 06:43:00,
2013-04-06 01:59:00,58.5,48.7,29.96,SSE,157,2.7,-999.0,70,-99.99,,,0.00,Acu-Link.com,2013-04-06 06:59:00,
2013-04-06 02:14:00,58.6,48.9,29.96,ENE,67,2.2,-999.0,70,-99.99,,,0.00,Acu-Link.com,2013-04-06 07:14:00,
2013-04-06 02:29:00,58.5,49.1,29.95,NNE,22,3.1,-999.0,71,-99.99,,,0.00,Acu-Link.com,2013-04-06 07:29:00,
2013-04-06 02:44:00,58.6,48.9,29.95,ESE,112,2.2,-999.0,70,-99.99,,,0.00,Acu-Link.com,2013-04-06 07:44:00,
2013-04-06 03:00:00,58.5,48.7,29.95,East,90,6.7,-999.0,70,-99.99,,,0.00,Acu-Link.com,2013-04-06 08:00:00,
2013-04-06 03:15:00,58.5,48.7,29.94,ESE,112,3.1,-999.0,70,-99.99,,,0.00,Acu-Link.com,2013-04-06 08:15:00,
2013-04-06 03:30:00,58.6,48.9,29.94,NE,45,4.3,-999.0,70,-99.99,,,0.00,Acu-Link.com,2013-04-06 08:30:00,
2013-04-06 03:45:00,58.3,48.9,29.93,SW,225,2.7,-999.0,71,-99.99,,,0.00,Acu-Link.com,2013-04-06 08:45:00,
2013-04-06 04:15:00,58.1,49.5,29.92,NNE,22,3.8,-999.0,73,-99.99,,,0.00,Acu-Link.com,2013-04-06 09:15:00,
2013-04-06 04:30:00,57.9,49.7,29.93,NNW,337,5.8,-999.0,74,-99.99,,,0.00,Acu-Link.com,2013-04-06 09:30:00,
2013-04-06 04:45:00,57.9,49.7,29.93,ENE,67,5.8,-999.0,74,-99.99,,,0.00,Acu-Link.com,2013-04-06 09:45:00,
2013-04-06 05:16:00,57.9,49.7,29.92,NNE,22,3.8,-999.0,74,-99.99,,,0.00,Acu-Link.com,2013-04-06 10:16:00,
2013-04-06 05:46:00,57.9,50.4,29.91,SSE,157,2.7,-999.0,76,-99.99,,,0.00,Acu-Link.com,2013-04-06 10:46:00,
2013-04-06 06:01:00,57.7,50.2,29.92,East,90,2.7,-999.0,76,-99.99,,,0.00,Acu-Link.com,2013-04-06 11:01:00,
2013-04-06 06:17:00,57.6,50.4,29.93,East,90,3.8,-999.0,77,-99.99,,,0.00,Acu-Link.com,2013-04-06 11:17:00,
2013-04-06 06:32:00,57.4,50.2,29.93,SE,135,5.8,-999.0,77,-99.99,,,0.00,Acu-Link.com,2013-04-06 11:32:00,
2013-04-06 06:47:00,57.2,49.7,29.93,SSE,157,5.8,-999.0,76,-99.99,,,0.00,Acu-Link.com,2013-04-06 11:47:00,
2013-04-06 07:02:00,56.8,48.3,29.93,SW,225,4.7,-999.0,73,-99.99,,,0.00,Acu-Link.com,2013-04-06 12:02:00,
2013-04-06 07:17:00,57.0,47.3,29.92,West,270,6.3,-999.0,70,-99.99,,,0.00,Acu-Link.com,2013-04-06 12:17:00,
2013-04-06 07:33:00,57.0,46.9,29.92,West,270,4.7,-999.0,69,-99.99,,,0.00,Acu-Link.com,2013-04-06 12:33:00,
2013-04-06 07:48:00,57.0,46.9,29.92,SW,225,5.8,-999.0,69,-99.99,,,0.00,Acu-Link.com,2013-04-06 12:48:00,
2013-04-06 08:03:00,57.4,46.9,29.94,SE,135,5.8,-999.0,68,-99.99,,,0.00,Acu-Link.com,2013-04-06 13:03:00,
2013-04-06 08:34:00,58.5,45.9,29.93,ESE,112,3.1,-999.0,63,-99.99,,,0.00,Acu-Link.com,2013-04-06 13:34:00,
2013-04-06 08:49:00,59.9,45.1,29.92,SW,225,11.9,-999.0,58,-99.99,,,0.00,Acu-Link.com,2013-04-06 13:49:00,
2013-04-06 09:04:00,61.2,45.3,29.93,SE,135,5.1,-999.0,56,-99.99,,,0.00,Acu-Link.com,2013-04-06 14:04:00,
2013-04-06 09:19:00,61.9,45.5,29.92,West,270,8.3,-999.0,55,-99.99,,,0.00,Acu-Link.com,2013-04-06 14:19:00,
2013-04-06 09:34:00,62.8,44.9,29.92,ENE,67,6.3,-999.0,52,-99.99,,,0.00,Acu-Link.com,2013-04-06 14:34:00,
2013-04-06 09:50:00,63.3,44.9,29.92,East,90,9.8,-999.0,51,-99.99,,,0.00,Acu-Link.com,2013-04-06 14:50:00,
2013-04-06 10:05:00,65.7,46.0,29.92,NW,315,8.9,-999.0,49,-99.99,,,0.00,Acu-Link.com,2013-04-06 15:05:00,
2013-04-06 10:20:00,66.4,46.1,29.92,NW,315,2.7,-999.0,48,-99.99,,,0.00,Acu-Link.com,2013-04-06 15:20:00,
2013-04-06 10:35:00,66.7,45.9,29.93,ENE,67,4.3,-999.0,47,-99.99,,,0.00,Acu-Link.com,2013-04-06 15:35:00,
2013-04-06 10:50:00,67.5,45.9,29.93,ESE,112,5.8,-999.0,46,-99.99,,,0.00,Acu-Link.com,2013-04-06 15:50:00,
2013-04-06 11:06:00,68.0,47.0,29.93,ESE,112,7.8,-999.0,47,-99.99,,,0.00,Acu-Link.com,2013-04-06 16:06:00,
2013-04-06 11:51:00,68.7,49.9,29.92,West,270,3.8,-999.0,51,-99.99,,,0.00,Acu-Link.com,2013-04-06 16:51:00,
2013-04-06 12:07:00,69.4,51.0,29.93,West,270,11.4,-999.0,52,-99.99,,,0.00,Acu-Link.com,2013-04-06 17:07:00,
2013-04-06 12:22:00,70.3,50.8,29.92,WNW,292,8.9,-999.0,50,-99.99,,,0.00,Acu-Link.com,2013-04-06 17:22:00,
2013-04-06 12:37:00,69.6,50.7,29.92,SSW,202,6.7,-999.0,51,-99.99,,,0.00,Acu-Link.com,2013-04-06 17:37:00,
2013-04-06 12:52:00,70.2,51.2,29.90,ENE,67,6.7,-999.0,51,-99.99,,,0.00,Acu-Link.com,2013-04-06 17:52:00,
2013-04-06 13:07:00,70.7,51.7,29.89,East,90,5.8,-999.0,51,-99.99,,,0.00,Acu-Link.com,2013-04-06 18:07:00,
2013-04-06 13:23:00,71.6,53.0,29.89,ENE,67,6.3,-999.0,52,-99.99,,,0.00,Acu-Link.com,2013-04-06 18:23:00,
2013-04-06 13:38:00,71.6,53.0,29.88,NW,315,8.9,-999.0,52,-99.99,,,0.00,Acu-Link.com,2013-04-06 18:38:00,
2013-04-06 13:53:00,71.2,52.7,29.87,East,90,10.3,-999.0,52,-99.99,,,0.00,Acu-Link.com,2013-04-06 18:53:00,
2013-04-06 14:08:00,72.1,53.5,29.87,WNW,292,8.3,-999.0,52,-99.99,,,0.00,Acu-Link.com,2013-04-06 19:08:00,
2013-04-06 14:39:00,73.4,54.7,29.85,West,270,10.3,-999.0,52,-99.99,,,0.00,Acu-Link.com,2013-04-06 19:39:00,
2013-04-06 14:54:00,75.0,56.2,29.84,ESE,112,8.9,-999.0,52,-99.99,,,0.00,Acu-Link.com,2013-04-06 19:54:00,
2013-04-06 15:09:00,74.7,55.9,29.84,WNW,292,8.9,-999.0,52,-99.99,,,0.00,Acu-Link.com,2013-04-06 20:09:00,
2013-04-06 15:24:00,75.7,56.3,29.84,SW,225,3.1,-999.0,51,-99.99,,,0.00,Acu-Link.com,2013-04-06 20:24:00,
2013-04-06 15:39:00,75.6,56.1,29.83,SW,225,4.7,-999.0,51,-99.99,,,0.00,Acu-Link.com,2013-04-06 20:39:00,
2013-04-06 15:55:00,75.7,56.3,29.82,ENE,67,11.0,-999.0,51,-99.99,,,0.00,Acu-Link.com,2013-04-06 20:55:00,
2013-04-06 16:10:00,76.6,56.6,29.82,SSW,202,7.8,-999.0,50,-99.99,,,0.00,Acu-Link.com,2013-04-06 21:10:00,
2013-04-06 16:25:00,76.1,56.1,29.81,West,270,6.3,-999.0,50,-99.99,,,0.00,Acu-Link.com,2013-04-06 21:25:00,
2013-04-06 16:40:00,76.8,56.8,29.81,ESE,112,6.7,-999.0,50,-99.99,,,0.00,Acu-Link.com,2013-04-06 21:40:00,
2013-04-06 16:55:00,77.0,56.9,29.81,ESE,112,5.8,-999.0,50,-99.99,,,0.00,Acu-Link.com,2013-04-06 21:55:00,
2013-04-06 17:11:00,76.6,57.1,29.81,ENE,67,6.3,-999.0,51,-99.99,,,0.00,Acu-Link.com,2013-04-06 22:11:00,
2013-04-06 17:26:00,75.4,57.0,29.81,West,270,5.8,-999.0,53,-99.99,,,0.00,Acu-Link.com,2013-04-06 22:26:00,
2013-04-06 17:41:00,76.3,57.3,29.80,SE,135,6.7,-999.0,52,-99.99,,,0.00,Acu-Link.com,2013-04-06 22:41:00,
2013-04-06 17:56:00,76.1,57.7,29.80,WSW,247,2.7,-999.0,53,-99.99,,,0.00,Acu-Link.com,2013-04-06 22:56:00,
2013-04-06 18:12:00,76.5,57.5,29.80,East,90,5.8,-999.0,52,-99.99,,,0.00,Acu-Link.com,2013-04-06 23:12:00,
2013-04-06 18:27:00,77.0,57.5,29.80,WSW,247,5.1,-999.0,51,-99.99,,,0.00,Acu-Link.com,2013-04-06 23:27:00,
2013-04-06 18:42:00,76.8,57.3,29.80,NW,315,3.1,-999.0,51,-99.99,,,0.00,Acu-Link.com,2013-04-06 23:42:00,
2013-04-06 18:57:00,75.2,57.4,29.79,SSE,157,5.1,-999.0,54,-99.99,,,0.00,Acu-Link.com,2013-04-06 23:57:00,
2013-04-06 19:12:00,74.3,57.1,29.80,West,270,5.1,-999.0,55,-99.99,,,0.00,Acu-Link.com,2013-04-07 00:12:00,
2013-04-06 19:43:00,73.2,58.0,29.80,NNE,22,2.7,-999.0,59,-99.99,,,0.00,Acu-Link.com,2013-04-07 00:43:00,
2013-04-06 19:58:00,72.1,57.9,29.81,SSE,157,5.1,-999.0,61,-99.99,,,0.00,Acu-Link.com,2013-04-07 00:58:00,
2013-04-06 20:13:00,71.8,58.0,29.81,ESE,112,2.7,-999.0,62,-99.99,,,0.00,Acu-Link.com,2013-04-07 01:13:00,
2013-04-06 20:28:00,70.9,58.1,29.81,East,90,5.1,-999.0,64,-99.99,,,0.00,Acu-Link.com,2013-04-07 01:28:00,
2013-04-06 20:44:00,70.2,58.3,29.81,ENE,67,4.3,-999.0,66,-99.99,,,0.00,Acu-Link.com,2013-04-07 01:44:00,
2013-04-06 20:59:00,69.8,58.3,29.81,SW,225,3.8,-999.0,67,-99.99,,,0.00,Acu-Link.com,2013-04-07 01:59:00,
2013-04-06 21:14:00,69.4,58.0,29.82,NE,45,4.7,-999.0,67,-99.99,,,0.00,Acu-Link.com,2013-04-07 02:14:00,
2013-04-06 21:29:00,69.1,58.1,29.83,East,90,2.2,-999.0,68,-99.99,,,0.00,Acu-Link.com,2013-04-07 02:29:00,
2013-04-06 21:44:00,68.5,58.4,29.83,NW,315,2.7,-999.0,70,-99.99,,,0.00,Acu-Link.com,2013-04-07 02:44:00,
2013-04-06 22:00:00,68.2,58.4,29.83,North,0,2.7,-999.0,71,-99.99,,,0.00,Acu-Link.com,2013-04-07 03:00:00,
2013-04-06 22:15:00,67.8,58.5,29.84,ESE,112,3.1,-999.0,72,-99.99,,,0.00,Acu-Link.com,2013-04-07 03:15:00,
2013-04-06 22:45:00,67.5,58.1,29.84,East,90,5.8,-999.0,72,-99.99,,,0.00,Acu-Link.com,2013-04-07 03:45:00,
2013-04-06 23:00:00,67.1,58.1,29.84,ESE,112,3.8,-999.0,73,-99.99,,,0.00,Acu-Link.com,2013-04-07 04:00:00,
2013-04-06 23:15:00,66.7,57.8,29.84,SSE,157,2.7,-999.0,73,-99.99,,,0.00,Acu-Link.com,2013-04-07 04:15:00,
2013-04-06 23:31:00,66.6,57.6,29.84,NNE,22,4.7,-999.0,73,-99.99,,,0.00,Acu-Link.com,2013-04-07 04:31:00,